EW0446 Weather Reports


time (UTC)temp
C
wind
direction
speed
KPH
gust
KPH
rain 1hr
cm
rain 24hr
cm
rain mn
cm
humidity
%
barometer
mb
20260906174520 31 174 1.6 4.8 0.00 0.00 0.00 69 1012.4
20260906173017 31 174 4.8 6.4 0.00 0.00 0.00 68 1012.8
20260906171517 31 177 4.8 9.7 0.00 0.00 0.00 67 1012.8
20260906170016 31 162 1.6 11.3 0.00 0.00 0.00 68 1013.1
20260906164516 31 168 6.4 11.3 0.00 0.00 0.00 66 1013.3
20260906163012 31 142 4.8 9.7 0.00 0.00 0.00 69 1013.5
20260906161515 30 121 6.4 11.3 0.00 0.00 0.00 70 1013.5
20260906160007 30 172 4.8 11.3 0.00 0.00 0.00 71 1013.4
20260906154505 30 137 1.6 8.0 0.00 0.00 0.00 73 1013.4
20260906153006 29 123 4.8 9.7 0.00 0.00 0.00 72 1013.4
20260906151502 29 122 1.6 6.4 0.00 0.00 0.00 76 1013.3
20260906150058 28 127 3.2 6.4 0.00 0.00 0.00 76 1013.2
20260906144555 28 123 1.6 11.3 0.00 0.00 0.00 77 1013.1
20260906143056 28 94 4.8 9.7 0.00 0.00 0.00 77 1013.2
20260906141551 27 131 4.8 8.0 0.00 0.00 0.00 79 1013.4
20260906140048 26 96 3.2 8.0 0.00 0.00 0.00 82 1013.4
20260906134543 25 131 3.2 8.0 0.00 0.00 0.00 84 1013.4
20260906133038 23 133 3.2 6.4 0.00 0.00 0.00 84 1013.2
20260906131543 23 118 4.8 8.0 0.00 0.00 0.00 84 1013.2
20260906130036 23 95 0.0 4.8 0.00 0.00 0.00 83 1013.1
20260906124532 22 93 0.0 3.2 0.00 0.00 0.00 83 1013.0
20260906123033 22 92 1.6 3.2 0.00 0.00 0.00 84 1012.8
20260906121531 21 87 0.0 4.8 0.00 0.00 0.00 83 1012.6
20260906120027 21 87 0.0 0.0 0.00 0.00 0.00 84 1012.3
20260906114525 21 87 0.0 0.0 0.00 0.00 0.00 84 1012.1
20260906113024 21 87 0.0 0.0 0.00 0.00 0.00 84 1012.1
20260906111524 22 87 0.0 0.0 0.00 0.00 0.00 83 1012.1
20260906110023 21 87 0.0 0.0 0.00 0.00 0.00 83 1012.2
20260906104533 22 87 0.0 0.0 0.00 0.00 0.00 83 1012.0
20260906103020 22 87 0.0 0.0 0.00 0.00 0.00 84 1012.1
20260906101520 21 87 0.0 0.0 0.00 0.00 0.00 84 1011.9
20260906100019 21 87 0.0 0.0 0.00 0.00 0.00 84 1011.9
20260906094534 22 87 0.0 0.0 0.00 0.00 0.00 84 1011.9
20260906093030 22 87 0.0 0.0 0.00 0.00 0.00 84 1011.9
20260906091517 22 87 0.0 0.0 0.00 0.00 0.00 84 1011.8
20260906090015 22 87 0.0 0.0 0.00 0.00 0.00 84 1011.9
20260906084513 22 87 0.0 3.2 0.00 0.00 0.00 84 1011.8
20260906083016 22 87 0.0 1.6 0.00 0.00 0.00 84 1011.5
20260906081511 22 87 3.2 4.8 0.00 0.00 0.00 84 1011.3
20260906080009 22 87 0.0 0.0 0.00 0.00 0.00 84 1011.3
20260906074509 22 87 0.0 0.0 0.00 0.00 0.00 84 1011.3
20260906073008 22 87 0.0 0.0 0.00 0.00 0.00 84 1011.2
20260906071507 22 87 0.0 1.6 0.00 0.00 0.00 84 1011.4
20260906070005 22 87 1.6 4.8 0.00 0.00 0.00 84 1011.5
20260906064504 22 85 0.0 1.6 0.00 0.00 0.00 84 1011.6
20260906063003 23 85 1.6 3.2 0.00 0.00 0.00 84 1011.7
20260906061503 23 84 0.0 1.6 0.00 0.00 0.00 83 1011.8
20260906060000 23 84 0.0 1.6 0.00 0.00 0.00 82 1011.6
20260906054602 23 83 0.0 0.0 0.00 0.00 0.00 82 1011.7
20260906053058 23 83 0.0 1.6 0.00 0.00 0.00 82 1011.8
20260906051605 23 83 0.0 1.6 0.00 0.00 0.00 81 1011.7
20260906050053 23 83 0.0 3.2 0.00 0.00 0.00 80 1011.6
20260906044552 24 83 0.0 1.6 0.00 0.00 0.00 78 1011.6
20260906043052 25 83 0.0 8.0 0.00 0.00 0.00 76 1011.6
20260906041555 25 144 1.6 3.2 0.00 0.00 0.00 75 1011.6
20260906040051 26 144 1.6 3.2 0.00 0.00 0.00 73 1011.5
20260906034554 26 144 0.0 0.0 0.00 0.00 0.00 72 1011.3
20260906033052 26 144 1.6 3.2 0.00 0.00 0.00 72 1011.2
20260906031550 26 144 0.0 3.2 0.00 0.00 0.00 72 1010.9
20260906030050 26 144 0.0 4.8 0.00 0.00 0.00 70 1010.6
20260906024601 26 144 0.0 4.8 0.00 0.00 0.00 70 1010.5
20260906023049 26 143 1.6 6.4 0.00 0.00 0.00 71 1010.3
20260906021549 27 146 1.6 6.4 0.00 0.00 0.00 70 1010.0
20260906020050 27 123 3.2 8.0 0.00 0.00 0.00 69 1009.9
20260906014600 27 119 3.2 6.4 0.00 0.00 0.00 70 1009.7
20260906013047 27 120 3.2 6.4 0.00 0.00 0.00 71 1009.6
20260906011547 28 123 3.2 6.4 0.00 0.00 0.00 69 1009.5
20260906010046 28 157 3.2 4.8 0.00 0.00 0.00 69 1009.5
20260906004546 29 160 3.2 4.8 0.00 0.00 0.00 68 1009.6
20260906003100 30 162 3.2 4.8 0.00 0.00 0.00 66 1009.6
20260906001545 31 164 3.2 4.8 0.00 0.00 0.00 65 1009.7
20260906000044 32 164 1.6 4.8 0.00 0.00 0.00 63 1009.7
20260905234544 32 166 3.2 6.4 0.00 0.00 0.00 59 1009.6
20260905233044 33 176 4.8 9.7 0.00 0.00 0.00 56 1009.4
20260905231544 33 166 6.4 14.5 0.00 0.00 0.00 53 1009.3
20260905230047 33 178 4.8 11.3 0.00 0.00 0.00 56 1009.3
20260905224547 34 186 3.2 11.3 0.00 0.00 0.00 56 1009.3
20260905223047 33 166 4.8 11.3 0.00 0.00 0.00 58 1009.4
20260905221547 33 177 4.8 8.0 0.00 0.00 0.00 58 1009.3
20260905220046 33 182 3.2 8.0 0.00 0.00 0.00 55 1009.4
20260905214544 35 162 3.2 11.3 0.00 0.00 0.00 51 1009.3
20260905213045 35 217 6.4 14.5 0.00 0.00 0.00 52 1009.4
20260905211544 36 235 4.8 11.3 0.00 0.00 0.00 49 1009.7
20260905210040 35 160 1.6 8.0 0.00 0.00 0.00 53 1010.0
20260905204543 35 157 4.8 9.7 0.00 0.00 0.00 54 1010.1
20260905203038 36 239 3.2 8.0 0.00 0.00 0.00 53 1010.4
20260905201543 36 255 3.2 11.3 0.00 0.00 0.00 47 1010.7
20260905200050 35 192 3.2 8.0 0.00 0.00 0.00 50 1010.8
20260905194544 35 171 3.2 12.9 0.00 0.00 0.00 54 1011.0
20260905193035 35 245 1.6 9.7 0.00 0.00 0.00 50 1011.1
20260905191533 35 212 6.4 12.9 0.00 0.00 0.00 53 1011.2
20260905190034 35 283 3.2 8.0 0.00 0.00 0.00 52 1011.5
20260905184534 35 251 4.8 8.0 0.00 0.00 0.00 50 1011.8
20260905183032 35 246 4.8 11.3 0.00 0.00 0.00 51 1011.9
20260905181533 34 212 4.8 9.7 0.00 0.00 0.00 55 1011.9
20260905180023 34 209 3.2 9.7 0.00 0.00 0.00 57 1012.0